Hourly Data Report for June 05, 2020

TORONTO CITY
ONTARIO
Current Station Operator: ECCC - MSC

43°40'00.000" N
79°24'00.000" W
112.50 m
6158355
71508
XTO

Download Data

Hourly Data (June 2020)
Hourly Data Report for June 5, 2020
TIME
LST
Temp Definition
°C
Dew Point Definition
°C
Rel Hum Definition
%
Precip. Amount Definition
mm

Wind Dir Definition
10's deg

Wind Spd Definition
km/h
Visibility Definition
km
Stn Press Definition
kPa
Hmdx Definition


Wind Chill Definition


Weather Definition


00:00 20.2 15.2 73 0.0       99.54     LegendNANA
01:00 19.1 14.3 74 0.0       99.53     LegendNANA
02:00 18.6 14.1 75 0.0       99.54     LegendNANA
03:00 18.1 13.5 74 0.0       99.57     LegendNANA
04:00 17.6 12.7 73 0.0       99.61     LegendNANA
05:00 17.4 13.9 80 0.0       99.66     LegendNANA
06:00 18.0 15.2 84 0.0       99.67     LegendNANA
07:00 20.3 16.1 77 0.0       99.67 25   LegendNANA
08:00 21.3 15.5 70 0.0       99.70 26   LegendNANA
09:00 21.4 15.9 71 0.0       99.74 26   LegendNANA
10:00 22.6 16.7 69 0.0       99.75 28   LegendNANA
11:00 23.6 17.3 68 0.0       99.73 29   LegendNANA
12:00 24.8 17.0 62 0.0       99.69 30   LegendNANA
13:00 24.2 17.4 66 0.0       99.63 30   LegendNANA
14:00 21.9 18.6 82 4.5       99.59 28   LegendNANA
15:00 24.0 19.4 75 0.2       99.56 31   LegendNANA
16:00 24.7 15.5 56 0.0       99.49 29   LegendNANA
17:00 25.1 15.9 57 0.0       99.44 30   LegendNANA
18:00 24.7 15.5 56 0.0       99.44 29   LegendNANA
19:00 21.4 16.2 72 0.2       99.52 26   LegendNANA
20:00 21.5 16.3 72 0.0       99.50 26   LegendNANA
21:00 21.9 16.3 70 0.0       99.52 27   LegendNANA
22:00 21.3 13.5 61 0.0       99.55     LegendNANA
23:00 20.3 12.8 62 0.0       99.52     LegendNANA

Notes on Data Quality.

Legend

  • E = Estimated
  • M = Missing
  • NA = Not Available*
  • [empty] = Indicates an unobserved value
Date modified: